Zurück zum Katalog

STARLINK-35069

AktivKommunikationVLEO
NORAD 66268·PAYLOAD·🇺🇸 United States

Gestartet Oct 31, 2025 von Vandenberg Space Force Base

Loading…

Nächste Überflüge (nächste 24 Stunden)

TLE

AktuellSource: CelesTrak SupGP

Epoche: Sep 14, 2026, 21:19 UTC

1 66268C 25247D   26257.88868056  .00033131  00000+0  97909-3 0  2573
2 66268  53.1606  29.6665 0001215  70.5331 257.5872 15.34366541    18

Verfolge STARLINK-35069 in Echtzeit mit AllMySat

Download on the App Store